{"data":{"norad_id":52483,"intl_designator":"2022-049AJ","name":"STARLINK-3875","alt_names":[],"object_type":"PAYLOAD","status":"ACTIVE","operator":null,"country":"US","launch_date":"2022-05-06","launch_site_code":"AFETR","launch_vehicle":null,"mission":null,"orbit_class":"UNKNOWN","rcs_meters":null,"size_class":null,"mass_kg":null,"dimensions":null,"purposes":["comms"],"wikipedia_slug":null,"has_3d_model":false,"image_url":null,"decayed_at":null,"tle_current":{"epoch":"2026-05-25T03:48:13.607712Z","epoch_age_seconds":57491,"freshness":"FRESH","line1":"1 52483U 22049AJ  26145.15849083  .00000141  00000+0  26944-4 0  9999","line2":"2 52483  53.2127  65.8372 0001436  66.4272 293.6871 15.08841073225176","mean_motion":15.08841073,"eccentricity":0.0001436,"inclination_deg":53.2127,"raan_deg":65.8372,"arg_perigee_deg":66.4272,"mean_anomaly_deg":293.6871,"bstar":2.6944e-5,"rev_number":22517,"period_min":95.437486808129,"perigee_km":538.74670208142,"apogee_km":540.73351638719,"semimajor_km":6917.8771092343,"source":"CELESTRAK","updated_at":"2026-05-25T13:38:17.155948Z"}}}